Weather in Yerbinskaya

Russia / Republic of Khakassia     53°58′33″N   90°18′54″E
temp.,
°C
wind,
m/s
gust,
m/s
humid.,
%
clouds,
%
prec.,
mm/h
press.,
hPa
HPBL,
m
12 may, wed
wed1201:00+6nnw3359100 0.0 101425
04:00+5nnw3265100 0.0 101424
07:00+6nnw3465100 0.0 1015138
10:00+11nne4540100 0.0 1013848
13:00+13nne5534100 0.0 10132014
16:00+14nne6433100 0.0 10122253
19:00+12nne4540100 0.0 10131307
22:00+8n225754 0.0 101522
13 may, thu
thu1301:00+6n116329 0.0 101610
04:00+4nw11625 0.0 101710
07:00+7wnw11523 0.0 101776
10:00+12nne023853 0.0 10151647
13:00+14ne2330100 0.0 10132436
16:00+15e332999 0.0 10112475
19:00+11w3253100 0.1 1012544
22:00+10w116097 0.0 101212
14 may, fri
fri1401:00+7w1171100 0.0 101210
04:00+6w117592 0.0 101110
07:00+8w116861 0.0 101196
10:00+9wnw3365100 0.6 1011552
13:00+6nw5888100 2.4 1013729
16:00+4nw4109397 1.3 1016698
19:00+4nnw5793100 2.4 1019802
22:00+3nnw389699 1.4 1023517
15 may, sat
sat1501:00+1nw2576100 1.4 1025203
04:00+1sw2277100 0.0 102519
07:00+3ssw237571 0.0 1026227
10:00+7wsw465594 0.0 1024997
13:00+8sw465798 0.0 1023781
16:00+10w685599 0.0 1022679
19:00+9wsw3864100 0.0 1023409
22:00+7sw2671100 0.0 1023254
16 may, sun
sun1601:00+7sw2476100 0.0 1022111
04:00+6sw337966 0.0 102167
07:00+8sw246893 0.0 1019120
10:00+13sw485398 0.0 1017810
13:00+13wsw61163100 0.5 1016990
16:00+16w9125223 0.1 10131038
19:00+15w611565 0.1 1013843
22:00+11wsw41274100 0.0 1013368